Seattle Boeing, WA
on Tuesday, January 29, 2013

Tuesday
Previous Day Next Day
Daily Summary
 ActualAverage (KSEA)Record (KSEA)
Temperature
Mean Temperature °F 43°F  
Max Temperature 48°F 49°F 60°F (1992)
Min Temperature 43°F 37°F 6°F (1950)
Degree Days
Heating Degree Days 20 22  
Month to date heating degree days 666  
Since 1 July heating degree days 2604  
Cooling Degree Days 0 0  
Month to date cooling degree days 0  
Year to date cooling degree days 0  
Moisture
Dew Point 43°F   
Average Humidity 86    
Maximum Humidity 90    
Minimum Humidity 77    
Precipitation
Precipitation 0.29 in 0.16 in 1.63 in (2004)
Month to date precipitation 5.26  
Year to date precipitation 5.26  
Snow
Snow 0.00 in in 7.00 in (1969)
Month to date snowfall  
Since 1 July snowfall  
Snow Depth in   
Wind
Wind Speed 7 mph   
Max Wind Speed 12 mph   
Max Gust Speed 22 mph   
Visibility 9 miles   
Events Rain   

Key: T is trace of precipitation, MM is missing value
Source: NWS Daily Summary
Time(PST)TemperatureDew PointHumidity Pressure Visibility Wind DirectionWind SpeedGust SpeedPrecipitationEvents Conditions
12:53 AM 43.0°F 39.9°F 89% 30.11 in 9.0 miles SE 8.1 mph - 0.01 in Rain Light Rain
1:53 AM 43.0°F 39.9°F 89% 30.12 in 10.0 miles SE 9.2 mph - 0.01 in Rain Light Rain
2:53 AM 44.1°F 41.0°F 89% 30.14 in 10.0 miles SE 6.9 mph - 0.01 in Rain Light Rain
3:53 AM 44.1°F 41.0°F 89% 30.16 in 10.0 miles SE 5.8 mph - 0.01 in Rain Light Rain
4:34 AM 44.6°F 41.0°F 87% 30.17 in 10.0 miles Calm Calm - 0.01 in Rain Light Rain
4:53 AM 44.1°F 41.0°F 89% 30.16 in 10.0 miles SSE 6.9 mph - 0.01 in Rain Light Rain
5:53 AM 44.1°F 41.0°F 89% 30.18 in 10.0 miles SSE 4.6 mph - 0.01 in   Overcast
6:53 AM 45.0°F 41.0°F 86% 30.20 in 10.0 miles SE 6.9 mph - 0.00 in Rain Light Rain
7:53 AM 45.0°F 42.1°F 90% 30.23 in 10.0 miles SE 6.9 mph - 0.00 in   Overcast
8:53 AM 45.0°F 42.1°F 90% 30.25 in 10.0 miles SE 8.1 mph - 0.01 in   Overcast
9:53 AM 46.9°F 43.0°F 86% 30.28 in 10.0 miles SE 8.1 mph - N/A   Overcast
10:53 AM 46.9°F 44.1°F 90% 30.30 in 10.0 miles SSE 10.4 mph - 0.00 in Rain Light Rain
11:53 AM 48.0°F 44.1°F 86% 30.30 in 10.0 miles SE 8.1 mph - 0.01 in Rain Light Rain
12:53 PM 48.0°F 44.1°F 86% 30.30 in 10.0 miles SSE 6.9 mph - 0.01 in Rain Light Rain
1:43 PM 48.2°F 44.6°F 87% 30.31 in 10.0 miles SE 4.6 mph - 0.00 in Rain Light Rain
1:53 PM 48.9°F 44.1°F 83% 30.31 in 10.0 miles SSE 5.8 mph - 0.00 in   Overcast
2:53 PM 48.0°F 45.0°F 89% 30.31 in 5.0 miles SSE 3.5 mph - 0.01 in Rain Light Rain
3:53 PM 48.0°F 45.0°F 89% 30.32 in 4.0 miles SSE 9.2 mph - 0.01 in   Overcast
4:53 PM 48.0°F 45.0°F 89% 30.33 in 9.0 miles SSE 6.9 mph - N/A   Overcast
5:04 PM 48.2°F 44.6°F 87% 30.33 in 9.0 miles SSE 6.9 mph - N/A   Overcast
5:53 PM 48.9°F 43.0°F 80% 30.33 in 10.0 miles SSE 11.5 mph 19.6 mph N/A   Overcast
6:53 PM 48.9°F 43.0°F 80% 30.33 in 10.0 miles SSW 9.2 mph - N/A   Overcast
7:53 PM 48.9°F 42.1°F 77% 30.34 in 10.0 miles South 9.2 mph - N/A   Overcast
8:53 PM 48.0°F 42.1°F 80% 30.34 in 10.0 miles SSW 9.2 mph 21.9 mph 0.03 in Rain Light Rain
9:53 PM 48.0°F 41.0°F 77% 30.34 in 10.0 miles South 9.2 mph 19.6 mph 0.05 in Rain Light Rain
10:53 PM 46.9°F 42.1°F 83% 30.34 in 10.0 miles SSE 9.2 mph - 0.05 in Rain Light Rain
11:21 PM 46.4°F 42.8°F 87% 30.34 in 5.0 miles SSE 10.4 mph - 0.03 in Rain Light Rain
11:53 PM 46.0°F 43.0°F 89% 30.33 in 4.0 miles SE 8.1 mph - 0.05 in   Overcast
Moon Phase
Jan. 29 Feb. 03 Feb. 10 Feb. 17 Feb. 25
Sunrise:07:38 AM (PST) Moon Rise:08:25 PM (PST)1/29
Sunset:05:06 PM (PST) Moon Set:08:23 AM (PST)1/29

Copyright © 2014 The Weather Underground, Inc.